Weather reports worldwide

Advertisment
Brest, France (7110): temperature & dewpoint: 18.06.2018 11:00:00 - 24.06.2018 11:00:00 (CEST)Brest, France (7110): temperature 5cm: 18.06.2018 11:00:00 - 24.06.2018 11:00:00 (CEST)Brest, France (7110): temperature -20cm & temperature -100cm: 18.06.2018 11:00:00 - 24.06.2018 11:00:00 (CEST)Brest, France (7110): wind speed & gusts: 18.06.2018 11:00:00 - 24.06.2018 11:00:00 (CEST)Brest, France (7110): wind direction: 18.06.2018 11:00:00 - 24.06.2018 11:00:00 (CEST)Brest, France (7110): reduced air pressure: 18.06.2018 11:00:00 - 24.06.2018 11:00:00 (CEST)Brest, France (7110): visibility: 18.06.2018 11:00:00 - 24.06.2018 11:00:00 (CEST)Brest, France (7110): sunshine duration: 18.06.2018 11:00:00 - 24.06.2018 11:00:00 (CEST)Brest, France (7110): precipitation: 18.06.2018 11:00:00 - 24.06.2018 11:00:00 (CEST)
Date & Time tt [°C] td [°C] tt 5cm [°C] tt -20cm [°C] tt -100cm [°C] ff [km/h] ff [kn] fx [km/h] fx [kn] dd ppp [hPa] vv [km] sd [min] rr [mm]
24.06.2018 11:00:00 21,0 9,3 - - - 11 6 21 11 E 1024,5 30 60 -
24.06.2018 10:00:00 19,6 9,2 16,4 16,2 14,9 10 6 16 9 ENE 1024,7 30 60 0,0
24.06.2018 09:00:00 17,6 9,2 13,8 16,2 14,9 11 6 15 8 ENE 1024,7 22 60 0,0
24.06.2018 08:00:00 15,4 10,2 8,5 16,3 14,9 9 5 14 8 ENE 1024,5 18 60 0,0
24.06.2018 07:00:00 11,4 9,3 7,2 16,4 14,9 10 6 13 7 ENE 1024,4 23 14 0,0
24.06.2018 06:00:00 10,1 8,5 7,2 16,5 15,0 7 4 10 5 NE 1024,6 20 0 0,0
24.06.2018 05:00:00 9,7 8,0 7,3 16,6 14,9 4 2 9 5 NE 1024,8 20 0 0,0
24.06.2018 04:00:00 10,4 7,8 8,8 16,6 15,0 5 3 16 9 NE 1025,1 26 0 0,0
24.06.2018 03:00:00 11,8 9,0 10,9 16,6 14,9 11 6 17 9 ENE 1025,2 26 0 0,0
24.06.2018 02:00:00 12,4 9,0 11,3 16,7 15,0 9 5 16 9 NE 1025,6 37 0 0,0
24.06.2018 01:00:00 12,7 9,3 11,6 16,7 14,9 10 6 17 9 ENE 1025,9 19 0 0,0
24.06.2018 00:00:00 12,9 9,3 12,2 16,7 14,9 13 7 19 11 NE 1026,0 51 0 0,0
23.06.2018 23:00:00 14,0 9,4 13,2 16,8 15,0 14 7 20 11 NE 1026,1 60 0 0,0
23.06.2018 22:00:00 15,8 8,8 15,3 16,7 14,9 15 8 32 17 NE 1025,8 60 50 0,0
23.06.2018 21:00:00 17,7 8,8 17,7 16,6 14,9 20 11 35 19 NE 1025,8 45 60 0,0
23.06.2018 20:00:00 19,0 7,1 19,8 16,5 14,9 21 12 39 21 NE 1025,7 28 60 0,0
23.06.2018 19:00:00 20,9 4,9 22,6 16,4 14,9 27 14 39 21 NE 1025,7 17 60 0,0
23.06.2018 18:00:00 22,5 8,6 26,8 16,3 14,9 26 14 36 20 NE 1025,8 20 60 0,0
23.06.2018 17:00:00 23,2 9,9 31,0 16,1 14,9 22 12 37 20 NE 1026,1 28 60 0,0
23.06.2018 16:00:00 23,0 9,7 32,2 16,0 14,9 17 9 30 16 ENE 1026,5 29 60 0,0
23.06.2018 15:00:00 23,6 9,2 32,0 15,9 14,9 10 5 26 14 ENE 1027,1 27 60 0,0
23.06.2018 14:00:00 23,2 7,7 29,5 15,8 14,9 11 6 23 12 ENE 1027,7 27 60 0,0
23.06.2018 13:00:00 22,2 8,0 26,5 15,8 14,9 9 5 33 18 NE 1028,3 29 60 0,0
23.06.2018 12:00:00 21,7 8,6 22,7 15,8 14,9 9 5 24 13 E 1028,4 19 60 0,0
23.06.2018 11:00:00 20,7 9,3 18,7 15,8 14,9 12 7 21 12 SE 1028,7 42 60 0,0
23.06.2018 10:00:00 18,6 9,6 15,1 15,9 14,9 14 7 20 11 ESE 1028,9 23 60 0,0
23.06.2018 09:00:00 15,6 10,6 12,4 15,9 14,9 10 6 20 11 E 1029,0 12 60 0,0
23.06.2018 08:00:00 12,9 12,3 8,7 16,0 14,9 15 8 22 12 ENE 1029,4 8 60 0,0
23.06.2018 07:00:00 9,4 9,4 7,0 16,1 14,9 11 6 16 9 NE 1029,4 6 19 0,0
23.06.2018 06:00:00 9,4 9,3 8,3 16,2 14,9 11 6 17 9 NE 1029,1 10 0 0,2
23.06.2018 05:00:00 9,2 9,1 6,5 16,2 14,9 11 6 18 10 NE 1029,1 14 0 0,0
23.06.2018 04:00:00 9,0 8,9 6,5 16,3 14,9 11 6 16 9 NE 1029,3 14 0 0,0
23.06.2018 03:00:00 9,1 9,0 7,5 16,3 14,9 8 4 16 9 NE 1029,4 15 0 0,0
23.06.2018 02:00:00 9,7 9,4 9,7 16,4 15,0 12 6 21 12 NE 1029,5 16 0 0,0
23.06.2018 01:00:00 10,2 9,7 10,2 16,4 14,9 14 8 22 12 NNE 1029,8 18 0 0,0
23.06.2018 00:00:00 10,4 9,2 10,3 16,4 14,9 9 5 23 12 NNE 1029,9 19 0 0,0
22.06.2018 23:00:00 11,1 8,3 11,0 16,5 14,9 12 7 25 13 NNE 1029,7 40 6 0,0
22.06.2018 22:00:00 12,7 7,4 12,4 16,4 14,9 13 7 31 17 NNE 1029,1 51 57 0,0
22.06.2018 21:00:00 14,4 7,0 14,6 16,4 14,9 16 9 34 18 NE 1029,4 40 60 0,0
22.06.2018 20:00:00 15,6 8,1 17,2 16,3 14,9 21 11 34 18 NNE 1029,6 22 60 0,0
22.06.2018 19:00:00 16,1 6,2 19,8 16,2 14,9 19 11 36 20 NE 1029,7 29 60 0,0
22.06.2018 18:00:00 17,0 7,3 23,5 16,1 14,9 23 12 38 20 NNE 1030,0 21 60 0,0
22.06.2018 17:00:00 17,8 5,7 27,5 16,0 14,9 24 13 40 21 NNE 1030,1 14 60 0,0
22.06.2018 16:00:00 19,2 7,0 26,7 15,9 14,9 23 12 40 21 NNE 1030,3 14 60 0,0
22.06.2018 15:00:00 18,9 7,3 26,4 15,8 14,9 23 12 45 25 NNE 1030,3 17 60 0,0
22.06.2018 14:00:00 19,2 7,3 24,4 15,8 14,9 23 13 40 22 NNE 1030,4 15 60 0,0
22.06.2018 13:00:00 19,1 7,2 22,3 15,7 14,8 21 12 33 18 ENE 1030,6 17 60 0,0
22.06.2018 12:00:00 18,4 8,4 20,9 15,8 14,8 21 11 32 17 NE 1030,7 20 60 0,0
22.06.2018 11:00:00 17,7 8,0 17,2 15,8 14,9 16 9 24 13 ENE 1030,9 29 60 0,0
22.06.2018 10:00:00 16,1 10,0 14,0 15,9 14,8 15 8 26 14 ENE 1031,1 15 60 0,0
22.06.2018 09:00:00 13,9 11,8 11,2 16,0 14,8 16 8 26 14 ENE 1031,0 17 60 0,0
22.06.2018 08:00:00 11,3 11,3 6,1 16,1 14,8 9 5 14 7 NE 1031,0 9 55 0,0
22.06.2018 07:00:00 8,6 8,6 5,5 16,2 14,8 6 3 14 8 NNE 1030,8 5 0 0,0
22.06.2018 06:00:00 9,0 9,0 4,8 16,3 14,8 12 6 14 8 N 1030,5 1,5 0 0,0
22.06.2018 05:00:00 7,4 7,4 4,1 16,4 14,8 7 4 11 6 NNE 1030,4 3,1 0 0,0
22.06.2018 04:00:00 6,0 5,9 4,2 16,6 14,8 5 3 9 5 N 1030,4 0,3 0 0,0
22.06.2018 03:00:00 7,7 7,6 5,0 16,6 14,8 6 3 7 4 NE 1030,2 10 0 0,0
22.06.2018 02:00:00 8,4 7,8 5,8 16,7 14,8 2 1 14 8 ESE 1030,0 15 0 0,0
22.06.2018 01:00:00 9,5 7,6 6,3 16,8 14,8 10 5 13 7 NNE 1030,0 26 0 0,0
22.06.2018 00:00:00 10,1 7,5 7,2 16,9 14,8 7 4 13 7 N 1029,9 38 0 0,0
21.06.2018 23:00:00 11,0 6,3 10,4 16,9 14,8 10 5 20 11 NNE 1029,7 53 2 0,0
21.06.2018 22:00:00 12,3 5,9 12,0 16,9 14,8 16 9 34 18 NNE 1028,9 56 57 0,0
21.06.2018 21:00:00 13,3 5,9 13,7 16,9 14,8 20 11 41 22 NNE 1028,6 49 50 0,0
21.06.2018 20:00:00 14,3 5,4 15,5 16,9 14,8 23 13 42 23 NNE 1028,3 47 57 0,0
21.06.2018 19:00:00 14,9 4,8 17,5 16,9 14,8 25 14 44 24 NNE 1028,3 21 60 0,0
21.06.2018 18:00:00 15,3 6,6 20,8 16,8 14,8 27 15 44 24 NNE 1028,5 19 60 0,0
21.06.2018 17:00:00 16,0 6,7 24,1 16,7 14,8 25 14 45 24 NNE 1028,4 16 60 0,0
21.06.2018 16:00:00 16,1 6,8 23,7 16,7 14,8 27 15 50 27 NE 1028,1 14 60 0,0
21.06.2018 15:00:00 15,8 7,3 22,3 16,7 14,8 27 15 48 26 NNE 1027,8 11 60 0,0
21.06.2018 14:00:00 16,3 8,0 20,2 16,7 14,8 31 17 49 27 NE 1027,3 14 60 0,0
21.06.2018 13:00:00 15,9 8,1 19,5 16,7 14,7 29 16 47 26 NNE 1027,0 10 60 0,0
21.06.2018 12:00:00 16,1 7,6 17,6 16,8 14,8 26 14 48 26 NNE 1026,6 12 60 0,0
21.06.2018 11:00:00 15,6 7,1 15,9 16,9 14,7 26 14 50 27 NE 1026,8 17 60 0,0
21.06.2018 10:00:00 15,1 7,6 14,2 17,0 14,7 31 17 50 27 NNE 1026,4 15 60 0,0
21.06.2018 09:00:00 14,2 8,8 12,7 17,0 14,7 24 13 45 24 NNE 1026,2 20 60 0,0
21.06.2018 08:00:00 13,2 9,4 11,4 17,1 14,7 21 12 41 22 NNE 1025,6 24 60 0,0
21.06.2018 07:00:00 12,2 9,6 11,2 17,2 14,8 19 11 37 20 NNE 1025,3 22 14 0,0
21.06.2018 06:00:00 12,0 9,6 11,2 17,2 14,7 18 10 37 20 NNE 1024,8 51 0 0,0
21.06.2018 05:00:00 12,4 11,6 12,0 17,3 14,7 19 10 32 17 NNE 1024,4 41 0 0,0
21.06.2018 04:00:00 13,4 13,1 13,5 17,3 14,7 19 10 32 17 NNE 1024,2 25 0 0,0
21.06.2018 03:00:00 14,1 13,9 14,3 17,4 14,7 12 6 22 12 N 1024,1 42 0 0,0
21.06.2018 02:00:00 14,1 14,1 14,6 17,4 14,7 12 6 22 12 N 1024,3 30 0 0,0
21.06.2018 01:00:00 14,3 14,3 15,1 17,4 14,7 15 8 31 17 N 1024,3 6 0 0,2
21.06.2018 00:00:00 15,0 15,0 15,7 17,5 14,7 16 9 25 13 N 1024,1 1,9 0 0,0
20.06.2018 23:00:00 14,6 14,6 15,6 17,4 14,7 14 7 25 13 N 1024,2 2,1 0 0,0
20.06.2018 22:00:00 14,4 14,2 15,7 17,4 14,7 10 5 27 15 N 1023,2 1,4 3 0,0
20.06.2018 21:00:00 17,9 14,4 18,4 17,3 14,7 15 8 23 12 N 1022,4 25 60 0,0
20.06.2018 20:00:00 19,2 14,9 20,6 17,2 14,7 16 8 26 14 N 1022,2 18 60 0,0
20.06.2018 19:00:00 19,5 15,2 22,2 17,2 14,7 17 9 24 13 NNE 1022,2 19 60 0,0
20.06.2018 18:00:00 19,4 15,1 23,9 17,1 14,7 16 9 29 15 N 1022,2 17 60 0,0
20.06.2018 17:00:00 22,5 15,8 28,8 16,9 14,7 15 8 23 12 N 1022,0 22 60 0,0
20.06.2018 16:00:00 23,6 17,8 30,7 16,8 14,7 10 5 26 14 NNW 1022,0 18 60 0,0
20.06.2018 15:00:00 23,6 18,5 29,8 16,7 14,7 11 6 21 12 N 1022,3 13 60 0,0
20.06.2018 14:00:00 22,7 18,5 25,2 16,7 14,7 8 4 16 9 NW 1022,4 18 53 0,0
20.06.2018 13:00:00 20,4 19,6 22,8 16,6 14,7 2 1 14 8 NNE 1022,8 16 52 0,0
20.06.2018 12:00:00 18,3 18,3 19,8 16,7 14,7 4 2 11 6 NNE 1023,0 18 5 0,0
20.06.2018 11:00:00 16,4 16,4 18,1 16,7 14,7 7 4 13 7 NE 1023,2 3,2 0 0,0
20.06.2018 10:00:00 15,8 15,8 17,5 16,7 14,7 6 3 11 6 NNW 1023,3 0,3 0 0,0
20.06.2018 09:00:00 15,4 15,4 16,0 16,7 14,7 4 2 7 4 WNW 1023,2 0,3 0 0,0
20.06.2018 08:00:00 14,8 14,8 15,3 16,8 14,7 0 0 5 3 N 1023,0 0,2 0 0,0
20.06.2018 07:00:00 14,4 14,4 15,2 16,8 14,7 4 2 8 5 NNW 1023,0 0,1 0 0,2
20.06.2018 06:00:00 14,6 14,6 15,1 16,8 14,7 6 4 11 6 ESE 1022,8 0,2 0 0,0
20.06.2018 05:00:00 14,5 14,5 15,1 16,8 14,7 6 4 11 6 ENE 1023,2 0,2 0 0,0
20.06.2018 04:00:00 14,6 14,6 15,3 16,9 14,7 7 4 14 7 ENE 1023,3 0,2 0 0,0
20.06.2018 03:00:00 14,8 14,8 15,2 16,9 14,7 7 4 14 8 ENE 1023,5 0,4 0 0,0
20.06.2018 02:00:00 14,7 14,7 15,5 16,9 14,7 10 5 16 9 ENE 1023,9 0,3 0 0,0
20.06.2018 01:00:00 15,0 15,0 15,5 16,9 14,6 10 5 17 9 NE 1024,4 0,7 0 0,0
20.06.2018 00:00:00 15,1 15,1 15,7 16,9 14,7 9 5 16 8 NNE 1024,9 1,2 0 0,0
19.06.2018 23:00:00 15,7 15,2 16,3 16,9 14,7 11 6 17 9 NNE 1024,8 16 0 0,0
19.06.2018 22:00:00 16,3 15,3 16,6 16,8 14,7 10 6 16 9 NNE 1024,4 36 1 0,0
19.06.2018 21:00:00 18,4 15,6 19,2 16,8 14,6 11 6 17 9 NNE 1024,3 34 5 0,0
19.06.2018 20:00:00 19,6 16,1 20,2 16,7 14,7 9 5 16 8 N 1024,3 30 23 0,0
19.06.2018 19:00:00 21,6 16,5 23,2 16,6 14,6 9 5 14 8 NNW 1024,6 37 29 0,0
19.06.2018 18:00:00 22,6 16,6 23,4 16,5 14,6 4 2 14 7 NE 1025,1 39 24 0,0
19.06.2018 17:00:00 21,2 15,5 24,2 16,5 14,6 6 3 16 9 W 1025,6 20 26 0,0
19.06.2018 16:00:00 20,5 16,5 23,0 16,4 14,6 8 4 15 8 SW 1026,0 20 0 0,0
19.06.2018 15:00:00 19,2 16,8 21,8 16,4 14,6 9 5 19 10 SW 1026,3 16 0 0,0
19.06.2018 14:00:00 19,0 16,8 20,6 16,4 14,6 10 5 14 8 SSW 1026,5 14 0 0,0
19.06.2018 13:00:00 18,1 16,4 19,5 16,3 14,6 8 5 13 7 SSW 1026,8 28 0 0,0
19.06.2018 12:00:00 17,7 16,4 18,8 16,3 14,6 4 2 10 5 S 1026,7 19 0 0,0
19.06.2018 11:00:00 17,1 16,3 18,3 16,4 14,6 4 2 9 5 SW 1026,9 36 0 0,0
19.06.2018 10:00:00 16,3 16,3 17,1 16,4 14,6 5 3 8 4 WSW 1027,0 36 0 0,0
19.06.2018 09:00:00 16,1 16,1 16,5 16,4 14,6 4 2 6 4 S 1026,9 10 0 0,0
19.06.2018 08:00:00 15,7 15,7 16,0 16,4 14,6 4 2 7 4 SW 1026,8 20 0 0,0
19.06.2018 07:00:00 15,4 15,4 15,7 16,4 14,6 5 3 8 4 SW 1026,5 19 0 0,0
19.06.2018 06:00:00 15,2 15,2 15,7 16,5 14,6 2 1 8 4 SW 1026,4 3,6 0 0,0
19.06.2018 05:00:00 15,2 15,2 15,7 16,5 14,6 5 3 11 6 WSW 1026,3 5 0 0,2
19.06.2018 04:00:00 15,3 15,3 15,6 16,5 14,6 7 4 11 6 W 1026,3 3,1 0 0,0
19.06.2018 03:00:00 15,1 15,1 15,5 16,5 14,6 7 4 13 7 WSW 1026,7 6 0 0,0
19.06.2018 02:00:00 14,9 14,9 15,5 16,5 14,6 10 5 16 8 SW 1026,8 4,3 0 0,2
19.06.2018 01:00:00 14,8 14,8 15,5 16,5 14,6 10 5 16 8 WSW 1027,0 5 0 0,0
19.06.2018 00:00:00 14,9 14,9 15,6 16,5 14,6 10 5 16 8 WSW 1027,2 5 0 0,0
18.06.2018 23:00:00 15,0 15,0 15,7 16,5 14,6 7 4 19 10 W 1027,2 2,1 0 0,0
18.06.2018 22:00:00 15,5 15,5 16,4 16,5 14,6 12 7 20 11 WSW 1026,6 4,3 0 0,0
18.06.2018 21:00:00 15,8 15,8 17,2 16,5 14,6 12 6 22 12 WSW 1026,3 4,0 0 0,0
18.06.2018 20:00:00 16,2 15,9 17,8 16,4 14,6 14 8 23 13 WSW 1026,1 4,3 0 0,0
18.06.2018 19:00:00 16,5 15,9 18,9 16,3 14,6 17 9 29 16 SW 1026,1 7 0 0,0
18.06.2018 18:00:00 17,4 15,4 20,2 16,3 14,6 21 11 29 15 SW 1025,9 45 0 0,0
18.06.2018 17:00:00 17,2 15,5 19,3 16,2 14,6 18 10 27 14 SW 1026,0 29 0 0,0
18.06.2018 16:00:00 17,0 15,7 19,9 16,2 14,6 16 9 26 14 WSW 1025,9 19 0 0,0
18.06.2018 15:00:00 18,0 15,8 21,5 16,1 14,6 17 9 25 14 SW 1025,6 20 3 0,0
18.06.2018 14:00:00 18,5 15,2 20,9 16,0 14,6 10 6 23 12 W 1025,5 19 4 0,0
18.06.2018 13:00:00 16,8 15,1 20,7 16,0 14,6 10 5 23 12 WNW 1025,8 35 0 0,0
18.06.2018 12:00:00 17,0 14,6 18,9 16,0 14,6 13 7 25 14 NW 1025,4 20 0 0,0
18.06.2018 11:00:00 - - - - - - - - - - - - - -

tt = temperature
td = dewpoint
tt 5cm = temperature 5cm
tt -20cm = temperature -20cm
tt -100cm = temperature -100cm
ff = wind speed
fx = gusts
dd = wind direction
ppp = reduced air pressure
vv = visibility
sd = sunshine duration
rr = precipitation

Next stations